Ted Stevens Anchorage International Airport Anchorage US
ICAO: PANC
IATA: ANC
Category: Large
Scheduled Services:

Elevation: 152 ft
TransAlt. 18000 ft.

Airport Communications:
APP/DEP:119.1
APP/DEP:123.8
ATIS:118.4
TWEB:114.3
CLNC DEL:119.4
KENAI RDO:122.2
GND:121.9
SAN FRANCISCO ARINC:1133
CAMPER:140.15
KENAI RDO:122.55
TWR:118.3
UNICOM:122.95

PANC Zoom In..

If you have problems with the map follow the link
https://www.worldairports.se/pages/airport.php?
ICAO=PANC

Runways:

(A) RW 07L length 10600 ft width 150 ft
ILS 109.90 / hdg 71

(B) RW 07R length 12400 ft width 200 ft
ILS 111.30 / hdg 71

(C) RW 15 length 11584 ft width 150 ft
ILS 111.75 / hdg 146

(D) RW 25L length 12400 ft width 200 ft
---- / hdg 251

(E) RW 25R length 10600 ft width 150 ft
---- / hdg 251

(F) RW 33 length 11584 ft width 150 ft
---- / hdg 326

Location; PANC
Day. 24 / Time. 10.53 Zulu
* Altimeter: 30.08
* Temperature: 05° c. 41°f.
* Wind from: 170° Speed 12 kn with Gusts up to 21 kn.
Dewpoint: 01° c.
Visibility: 10 Statute Miles.
Clouds: Broken 11000 ft.

PANC 241053Z 17012G21KT 10SM BKN110 05/01 A3008 RMK AO2 SLP189 T00500006


Wind From 170°
Speed 12 kn.

 
 
jpsmedia.com for Web Design worldairports.se 2019   terms of use